UAE322 OMDB-RKSI

Flight info

Callsign UAE322
Flight time 7h 42m
Altitude 37000
Route IVURO1F IVURO M428 TARBO Y220 ITLOB B505 PG G325 PURPA W112 BILDA W619 JSG V67 ALGOT W199 YBL W272 DAMRO V162 DKO W69 HUR B339 LADIX W34 VAPGU W100 ORAVA W201 UNSEK A326 DONVO G597 AGAVO Y644 REBIT REBIT2H
Aircraft A388/J-SADE2E3FGHIJ3J4J5M1RWXY/LB1D1

Departure

Time 2026-05-05 15:37
Airport Dubai International Airport (OMDB)

Arrival

Time 2026-05-05 23:19
Airport Incheon International Airport (RKSI)
Time Latitude Longitude Altitude Speed Heading
2026-05-05 14:37 25.25336 55.35501 26 ft 0 kts 211°
2026-05-05 15:17 25.25337 55.35502 26 ft 2 kts 211°
2026-05-05 15:17 25.25345 55.35507 26 ft 0 kts 211°
2026-05-05 15:17 25.25355 55.35514 26 ft 3 kts 211°
2026-05-05 15:18 25.25365 55.35521 25 ft 2 kts 216°
2026-05-05 15:18 25.25374 55.35532 26 ft 0 kts 233°
2026-05-05 15:18 25.25374 55.35533 26 ft 0 kts 234°
2026-05-05 15:18 25.25380 55.35550 23 ft 3 kts 254°
2026-05-05 15:19 25.25380 55.35576 24 ft 3 kts 281°
2026-05-05 15:19 25.25374 55.35590 25 ft 0 kts 297°
2026-05-05 15:20 25.25382 55.35577 24 ft 2 kts 312°
2026-05-05 15:20 25.25394 55.35565 26 ft 1 kts 331°
2026-05-05 15:21 25.25399 55.35562 24 ft 0 kts 328°
2026-05-05 15:21 25.25404 55.35558 25 ft 3 kts 326°
2026-05-05 15:21 25.25419 55.35545 26 ft 3 kts 315°
2026-05-05 15:21 25.25425 55.35537 26 ft 0 kts 310°
2026-05-05 15:22 25.25431 55.35529 26 ft 3 kts 306°
2026-05-05 15:22 25.25438 55.35518 26 ft 0 kts 300°
2026-05-05 15:27 25.25440 55.35512 31 ft 3 kts 300°
2026-05-05 15:27 25.25458 55.35478 28 ft 7 kts 300°
2026-05-05 15:27 25.25486 55.35423 30 ft 9 kts 300°
2026-05-05 15:27 25.25524 55.35356 29 ft 11 kts 302°
2026-05-05 15:28 25.25569 55.35277 31 ft 13 kts 302°
2026-05-05 15:28 25.25618 55.35192 30 ft 14 kts 302°
2026-05-05 15:28 25.25677 55.35150 29 ft 10 kts 16°
2026-05-05 15:28 25.25741 55.35189 30 ft 11 kts 31°
2026-05-05 15:29 25.25813 55.35239 26 ft 13 kts 31°
2026-05-05 15:29 25.25887 55.35288 26 ft 13 kts 31°
2026-05-05 15:29 25.25963 55.35344 27 ft 13 kts 46°
2026-05-05 15:29 25.26007 55.35433 27 ft 14 kts 81°
2026-05-05 15:30 25.25990 55.35547 28 ft 16 kts 115°
2026-05-05 15:30 25.25928 55.35665 28 ft 20 kts 121°
2026-05-05 15:30 25.25852 55.35802 28 ft 20 kts 122°
2026-05-05 15:30 25.25785 55.35919 28 ft 19 kts 122°
2026-05-05 15:31 25.25711 55.36050 28 ft 22 kts 122°
2026-05-05 15:31 25.25626 55.36201 29 ft 24 kts 122°
2026-05-05 15:31 25.25535 55.36362 29 ft 25 kts 122°
2026-05-05 15:31 25.25439 55.36532 29 ft 27 kts 122°
2026-05-05 15:32 25.25340 55.36709 29 ft 28 kts 121°
2026-05-05 15:32 25.25237 55.36893 29 ft 28 kts 122°
2026-05-05 15:32 25.25134 55.37078 30 ft 29 kts 122°
2026-05-05 15:32 25.25029 55.37267 30 ft 29 kts 121°
2026-05-05 15:33 25.24938 55.37425 30 ft 21 kts 122°
2026-05-05 15:33 25.24859 55.37563 30 ft 16 kts 122°
2026-05-05 15:33 25.24796 55.37674 30 ft 14 kts 122°
2026-05-05 15:33 25.24736 55.37779 30 ft 18 kts 122°
2026-05-05 15:34 25.24670 55.37898 29 ft 6 kts 121°
2026-05-05 15:34 25.24666 55.37906 29 ft 3 kts 110°
2026-05-05 15:34 25.24664 55.37935 30 ft 3 kts 70°
2026-05-05 15:34 25.24685 55.37963 30 ft 6 kts 34°
2026-05-05 15:35 25.24722 55.37988 32 ft 6 kts 31°
2026-05-05 15:35 25.24756 55.38011 34 ft 6 kts 31°
2026-05-05 15:35 25.24791 55.38026 35 ft 4 kts 354°
2026-05-05 15:35 25.24811 55.38015 35 ft 3 kts 303°
2026-05-05 15:36 25.24812 55.38013 35 ft 2 kts 302°
2026-05-05 15:36 25.24934 55.37798 35 ft 73 kts 302°
2026-05-05 15:36 25.25317 55.37115 34 ft 136 kts 302°
2026-05-05 15:36 25.25852 55.36138 89 ft 169 kts 302°
2026-05-05 15:37 25.26462 55.35021 567 ft 169 kts 302°
2026-05-05 15:37 25.27054 55.33912 892 ft 177 kts 303°
2026-05-05 15:37 25.27722 55.32715 1213 ft 185 kts 304°
2026-05-05 15:37 25.28410 55.31504 1628 ft 190 kts 305°
2026-05-05 15:38 25.29146 55.30261 1917 ft 197 kts 314°
2026-05-05 15:38 25.30282 55.29482 2269 ft 192 kts 350°
2026-05-05 15:38 25.31601 55.29484 2603 ft 191 kts
2026-05-05 15:38 25.32977 55.29581 2745 ft 203 kts
2026-05-05 15:39 25.34391 55.29619 3043 ft 204 kts
2026-05-05 15:39 25.35827 55.29641 3236 ft 210 kts
2026-05-05 15:39 25.37230 55.29666 3302 ft 219 kts
2026-05-05 15:39 25.38802 55.29718 3348 ft 235 kts
2026-05-05 15:40 25.40305 55.30398 3783 ft 239 kts 40°
2026-05-05 15:40 25.41366 55.31741 4327 ft 244 kts 53°
2026-05-05 15:40 25.42408 55.33234 4549 ft 266 kts 52°
2026-05-05 15:40 25.43589 55.34880 4935 ft 277 kts 51°
2026-05-05 15:41 25.44806 55.36551 5548 ft 281 kts 51°
2026-05-05 15:41 25.46032 55.38223 6099 ft 285 kts 51°
2026-05-05 15:41 25.47285 55.39933 6718 ft 287 kts 51°
2026-05-05 15:41 25.48548 55.41655 7352 ft 289 kts 51°
2026-05-05 15:42 25.49795 55.43400 7988 ft 291 kts 52°
2026-05-05 15:42 25.51037 55.45191 8614 ft 293 kts 52°
2026-05-05 15:42 25.52264 55.47000 9244 ft 295 kts 57°
2026-05-05 15:42 25.53006 55.49114 9834 ft 298 kts 82°
2026-05-05 15:43 25.52898 55.51406 10293 ft 306 kts 104°
2026-05-05 15:43 25.51992 55.53606 10461 ft 323 kts 121°
2026-05-05 15:43 25.50704 55.55718 10599 ft 339 kts 125°
2026-05-05 15:43 25.49315 55.57896 10835 ft 351 kts 125°
2026-05-05 15:44 25.48002 55.60030 11344 ft 354 kts 124°
2026-05-05 15:44 25.46606 55.62386 11944 ft 356 kts 123°
2026-05-05 15:44 25.45261 55.64713 12535 ft 360 kts 122°
2026-05-05 15:44 25.43924 55.67061 13131 ft 362 kts 121°
2026-05-05 15:45 25.42796 55.69533 13711 ft 365 kts 112°
2026-05-05 15:45 25.41990 55.72209 14243 ft 369 kts 104°
2026-05-05 15:45 25.41423 55.74997 14770 ft 374 kts 102°
2026-05-05 15:45 25.40838 55.77814 15322 ft 378 kts 103°
2026-05-05 15:46 25.40233 55.80657 15900 ft 382 kts 103°
2026-05-05 15:46 25.39618 55.83531 16474 ft 386 kts 103°
2026-05-05 15:46 25.38995 55.86438 17055 ft 390 kts 103°
2026-05-05 15:46 25.38367 55.89373 17648 ft 394 kts 103°
2026-05-05 15:47 25.37731 55.92343 18220 ft 398 kts 103°
2026-05-05 15:47 25.37310 55.94311 18567 ft 400 kts 103°
2026-05-05 15:47 25.36447 55.98338 19256 ft 405 kts 103°
2026-05-05 15:47 25.35801 56.01350 19767 ft 409 kts 103°
2026-05-05 15:48 25.35129 56.04483 20296 ft 413 kts 103°
2026-05-05 15:48 25.34472 56.07540 20820 ft 416 kts 103°
2026-05-05 15:48 25.33803 56.10652 21343 ft 420 kts 103°
2026-05-05 15:48 25.33119 56.13827 21858 ft 424 kts 103°
2026-05-05 15:49 25.32295 56.16961 22368 ft 427 kts 109°
2026-05-05 15:49 25.31269 56.20027 22848 ft 432 kts 110°
2026-05-05 15:49 25.30222 56.23195 23373 ft 435 kts 110°
2026-05-05 15:49 25.29182 56.26360 23776 ft 440 kts 110°
2026-05-05 15:50 25.28145 56.29516 24156 ft 444 kts 110°
2026-05-05 15:50 25.27087 56.32738 24558 ft 449 kts 110°
2026-05-05 15:50 25.26023 56.35973 24982 ft 452 kts 110°
2026-05-05 15:50 25.24936 56.39270 25365 ft 457 kts 110°
2026-05-05 15:51 25.23853 56.42551 25759 ft 461 kts 110°
2026-05-05 15:51 25.22747 56.45897 26170 ft 465 kts 110°
2026-05-05 15:51 25.21630 56.49272 26566 ft 469 kts 110°
2026-05-05 15:51 25.20886 56.51518 26814 ft 471 kts 111°
2026-05-05 15:52 25.19383 56.56054 27320 ft 476 kts 111°
2026-05-05 15:52 25.18612 56.58379 27582 ft 479 kts 111°
2026-05-05 15:52 25.17398 56.61813 27926 ft 483 kts 114°
2026-05-05 15:52 25.16089 56.65238 28302 ft 486 kts 114°
2026-05-05 15:53 25.14324 56.69803 28767 ft 491 kts 114°
2026-05-05 15:53 25.13418 56.72164 29015 ft 493 kts 114°
2026-05-05 15:53 25.12090 56.75646 29348 ft 497 kts 114°
2026-05-05 15:53 25.10749 56.79185 29692 ft 500 kts 114°
2026-05-05 15:54 25.09408 56.82728 30005 ft 503 kts 114°
2026-05-05 15:54 25.08071 56.86261 30313 ft 505 kts 114°
2026-05-05 15:54 25.06713 56.89848 30599 ft 508 kts 114°
2026-05-05 15:54 25.05344 56.93461 30895 ft 510 kts 114°
2026-05-05 15:55 25.03970 56.97084 31168 ft 513 kts 114°
2026-05-05 15:55 25.02597 57.00698 31456 ft 515 kts 114°
2026-05-05 15:55 25.01203 57.04366 31721 ft 518 kts 114°
2026-05-05 15:56 24.98103 57.12512 32292 ft 523 kts 114°
2026-05-05 15:56 24.96692 57.16214 32553 ft 525 kts 114°
2026-05-05 15:56 24.95291 57.19887 32793 ft 527 kts 114°
2026-05-05 15:56 24.93848 57.23667 33059 ft 530 kts 114°
2026-05-05 15:57 24.92434 57.27366 33304 ft 532 kts 114°
2026-05-05 15:57 24.90997 57.31125 33566 ft 534 kts 114°
2026-05-05 15:57 24.89551 57.34900 33809 ft 536 kts 114°
2026-05-05 15:57 24.88100 57.38688 34050 ft 538 kts 114°
2026-05-05 15:58 24.86641 57.42492 34297 ft 539 kts 114°
2026-05-05 15:58 24.85236 57.46154 34601 ft 539 kts 114°
2026-05-05 15:58 24.83776 57.49954 34959 ft 537 kts 115°
2026-05-05 15:58 24.82319 57.53746 35312 ft 536 kts 115°
2026-05-05 15:59 24.80865 57.57524 35654 ft 535 kts 115°
2026-05-05 15:59 24.79431 57.61245 35999 ft 534 kts 115°
2026-05-05 15:59 24.77965 57.65049 36349 ft 533 kts 115°
2026-05-05 15:59 24.76526 57.68779 36676 ft 532 kts 115°
2026-05-05 16:00 24.75085 57.72569 36787 ft 536 kts 112°
2026-05-05 16:00 24.73298 57.80490 36788 ft 538 kts 97°
2026-05-05 16:01 24.73068 57.88727 36783 ft 540 kts 90°
2026-05-05 16:01 24.73061 57.96973 36786 ft 540 kts 90°
2026-05-05 16:02 24.73035 58.05203 36783 ft 540 kts 90°
2026-05-05 16:02 24.73008 58.13482 36780 ft 540 kts 90°
2026-05-05 16:03 24.72978 58.21754 36785 ft 540 kts 90°
2026-05-05 16:03 24.72945 58.29957 36785 ft 540 kts 90°
2026-05-05 16:04 24.72906 58.38221 36781 ft 540 kts 90°
2026-05-05 16:04 24.72863 58.46488 36785 ft 540 kts 90°
2026-05-05 16:05 24.72815 58.54751 36781 ft 540 kts 90°
2026-05-05 16:05 24.72762 58.63023 36786 ft 540 kts 90°
2026-05-05 16:06 24.72706 58.71290 36786 ft 540 kts 90°
2026-05-05 16:06 24.72644 58.79560 36785 ft 540 kts 90°
2026-05-05 16:07 24.72578 58.87813 36785 ft 540 kts 90°
2026-05-05 16:07 24.72508 58.96028 36793 ft 540 kts 90°
2026-05-05 16:08 24.72433 59.04284 36789 ft 540 kts 90°
2026-05-05 16:08 24.72300 59.12401 36783 ft 539 kts 95°
2026-05-05 16:09 24.71557 59.20603 36785 ft 539 kts 96°
2026-05-05 16:09 24.70954 59.27430 36792 ft 539 kts 96°
2026-05-05 16:10 24.70223 59.35647 36791 ft 539 kts 96°
2026-05-05 16:10 24.69362 59.45196 36793 ft 539 kts 96°
2026-05-05 16:11 24.68737 59.52068 36798 ft 539 kts 96°
2026-05-05 16:12 24.67232 59.68478 36799 ft 539 kts 96°
2026-05-05 16:13 24.65331 59.88940 36797 ft 539 kts 96°
2026-05-05 16:13 24.64560 59.97153 36802 ft 539 kts 96°
2026-05-05 16:14 24.63007 60.13541 36807 ft 539 kts 96°
2026-05-05 16:15 24.61443 60.29864 36798 ft 538 kts 96°
2026-05-05 16:16 24.59856 60.46230 36799 ft 538 kts 96°
2026-05-05 16:17 24.58655 60.58499 36806 ft 538 kts 96°
2026-05-05 16:18 24.58280 60.70810 36805 ft 537 kts 89°
2026-05-05 16:19 24.58290 60.83076 36808 ft 537 kts 89°
2026-05-05 16:19 24.58282 60.95402 36810 ft 538 kts 89°
2026-05-05 16:20 24.58256 61.11849 36817 ft 538 kts 89°
2026-05-05 16:22 24.58594 61.32326 36817 ft 536 kts 79°
2026-05-05 16:22 24.60625 61.40148 36819 ft 531 kts 65°
2026-05-05 16:23 24.63360 61.47695 36816 ft 532 kts 66°
2026-05-05 16:23 24.67406 61.59049 36819 ft 532 kts 66°
2026-05-05 16:24 24.70036 61.66431 36821 ft 532 kts 66°
2026-05-05 16:25 24.74084 61.77812 36822 ft 532 kts 66°
2026-05-05 16:25 24.78121 61.89194 36824 ft 532 kts 66°
2026-05-05 16:26 24.83499 62.04405 36796 ft 534 kts 66°
2026-05-05 16:27 24.86177 62.12000 36800 ft 535 kts 66°
2026-05-05 16:27 24.88875 62.19669 36817 ft 537 kts 66°
2026-05-05 16:28 24.91569 62.27340 36825 ft 538 kts 66°
2026-05-05 16:28 24.94265 62.35029 36830 ft 539 kts 66°
2026-05-05 16:29 24.96966 62.42749 36835 ft 540 kts 66°
2026-05-05 16:29 24.99668 62.50486 36852 ft 540 kts 66°
2026-05-05 16:30 25.02367 62.58231 36855 ft 541 kts 66°
2026-05-05 16:30 25.05062 62.65977 36839 ft 541 kts 66°
2026-05-05 16:31 25.07737 62.73680 36843 ft 541 kts 66°
2026-05-05 16:31 25.10422 62.81430 36845 ft 541 kts 66°
2026-05-05 16:32 25.13113 62.89210 36841 ft 541 kts 66°
2026-05-05 16:32 25.15792 62.96970 36836 ft 541 kts 66°
2026-05-05 16:33 25.18403 63.04550 36835 ft 541 kts 66°
2026-05-05 16:33 25.21080 63.12335 36838 ft 541 kts 66°
2026-05-05 16:34 25.23746 63.20102 36834 ft 541 kts 66°
2026-05-05 16:34 25.26415 63.27864 36830 ft 539 kts 64°
2026-05-05 16:35 25.28133 63.31532 36829 ft 534 kts 53°
2026-05-05 16:35 25.30385 63.34752 36828 ft 527 kts 42°
2026-05-05 16:35 25.33091 63.37431 36824 ft 519 kts 31°
2026-05-05 16:35 25.36147 63.39481 36825 ft 510 kts 20°
2026-05-05 16:36 25.42725 63.41988 36828 ft 503 kts 12°
2026-05-05 16:36 25.49347 63.44566 36829 ft 507 kts 16°
2026-05-05 16:37 25.55882 63.47538 36841 ft 509 kts 17°
2026-05-05 16:37 25.62410 63.50612 36848 ft 509 kts 17°
2026-05-05 16:38 25.68928 63.53687 36853 ft 510 kts 17°
2026-05-05 16:38 25.75465 63.56766 36867 ft 510 kts 17°
2026-05-05 16:39 25.82000 63.59849 36866 ft 510 kts 17°
2026-05-05 16:39 25.88532 63.62933 36867 ft 510 kts 17°
2026-05-05 16:40 25.95069 63.66022 36874 ft 510 kts 17°
2026-05-05 16:40 26.01572 63.69099 36886 ft 511 kts 17°
2026-05-05 16:41 26.08151 63.72204 36889 ft 511 kts 17°
2026-05-05 16:41 26.14668 63.75282 36889 ft 510 kts 17°
2026-05-05 16:42 26.21204 63.78374 36892 ft 510 kts 17°
2026-05-05 16:42 26.27744 63.81472 36893 ft 510 kts 17°
2026-05-05 16:43 26.34238 63.84551 36899 ft 510 kts 17°
2026-05-05 16:43 26.40773 63.87655 36908 ft 510 kts 17°
2026-05-05 16:44 26.47294 63.90757 36894 ft 509 kts 17°
2026-05-05 16:44 26.53805 63.93855 36896 ft 508 kts 16°
2026-05-05 16:45 26.60304 63.96953 36901 ft 508 kts 16°
2026-05-05 16:45 26.66800 64.00053 36901 ft 507 kts 16°
2026-05-05 16:46 26.73295 64.03157 36902 ft 507 kts 16°
2026-05-05 16:46 26.79779 64.06258 36908 ft 506 kts 16°
2026-05-05 16:47 26.86259 64.09361 36912 ft 506 kts 16°
2026-05-05 16:47 26.92664 64.12621 36915 ft 512 kts 22°
2026-05-05 16:48 26.98504 64.17399 36913 ft 526 kts 37°
2026-05-05 16:48 27.03618 64.23247 36911 ft 528 kts 39°
2026-05-05 16:49 27.08775 64.29131 36922 ft 529 kts 39°
2026-05-05 16:49 27.13925 64.35025 36920 ft 529 kts 39°
2026-05-05 16:50 27.19077 64.40941 36927 ft 529 kts 39°
2026-05-05 16:50 27.24220 64.46856 36933 ft 530 kts 39°
2026-05-05 16:51 27.29375 64.52793 36936 ft 530 kts 39°
2026-05-05 16:51 27.34528 64.58737 36936 ft 531 kts 39°
2026-05-05 16:52 27.39673 64.64678 36943 ft 531 kts 39°
2026-05-05 16:52 27.44802 64.70611 36937 ft 531 kts 39°
2026-05-05 16:53 27.49961 64.76587 36931 ft 531 kts 39°
2026-05-05 16:53 27.55111 64.82560 36932 ft 531 kts 39°
2026-05-05 16:54 27.60259 64.88541 36929 ft 531 kts 39°
2026-05-05 16:54 27.65379 64.94498 36923 ft 530 kts 39°
2026-05-05 16:55 27.70510 65.00474 36917 ft 531 kts 39°
2026-05-05 16:55 27.75639 65.06458 36913 ft 530 kts 39°
2026-05-05 16:56 27.80766 65.12448 36906 ft 530 kts 39°
2026-05-05 16:56 27.85888 65.18440 36902 ft 529 kts 39°
2026-05-05 16:57 27.91001 65.24431 36910 ft 529 kts 39°
2026-05-05 16:57 27.95250 65.29416 36905 ft 529 kts 39°
2026-05-05 16:58 28.00361 65.35421 36913 ft 529 kts 39°
2026-05-05 16:58 28.05472 65.41433 36911 ft 529 kts 39°
2026-05-05 16:59 28.11401 65.48420 36911 ft 529 kts 39°
2026-05-05 16:59 28.15676 65.53466 36921 ft 529 kts 39°
2026-05-05 17:00 28.20780 65.59497 36924 ft 530 kts 39°
2026-05-05 17:00 28.25877 65.65530 36931 ft 529 kts 39°
2026-05-05 17:01 28.30966 65.71562 36937 ft 529 kts 39°
2026-05-05 17:01 28.36056 65.77603 36946 ft 529 kts 39°
2026-05-05 17:02 28.41112 65.83613 36953 ft 529 kts 39°
2026-05-05 17:02 28.46191 65.89659 36974 ft 528 kts 39°
2026-05-05 17:03 28.51250 65.95690 36991 ft 528 kts 39°
2026-05-05 17:03 28.56331 66.01757 36975 ft 528 kts 39°
2026-05-05 17:04 28.61396 66.07816 36989 ft 528 kts 39°
2026-05-05 17:04 28.66457 66.13875 37001 ft 527 kts 39°
2026-05-05 17:05 28.71517 66.19943 37011 ft 528 kts 39°
2026-05-05 17:05 28.76537 66.25974 37021 ft 527 kts 39°
2026-05-05 17:06 28.81583 66.32044 37026 ft 527 kts 39°
2026-05-05 17:06 28.86632 66.38128 37036 ft 527 kts 39°
2026-05-05 17:07 28.91679 66.44218 37042 ft 527 kts 39°
2026-05-05 17:07 28.96714 66.50302 37047 ft 527 kts 39°
2026-05-05 17:08 29.01753 66.56399 37050 ft 527 kts 39°
2026-05-05 17:08 29.06749 66.62445 37054 ft 526 kts 39°
2026-05-05 17:09 29.11789 66.68527 37050 ft 525 kts 39°
2026-05-05 17:09 29.16814 66.74603 37043 ft 525 kts 39°
2026-05-05 17:10 29.21833 66.80683 37047 ft 525 kts 39°
2026-05-05 17:10 29.26815 66.86730 37043 ft 525 kts 39°
2026-05-05 17:11 29.31846 66.92845 37022 ft 524 kts 39°
2026-05-05 17:11 29.36833 66.98924 37021 ft 522 kts 39°
2026-05-05 17:12 29.41788 67.04962 37003 ft 523 kts 39°
2026-05-05 17:12 29.46774 67.11042 36999 ft 524 kts 39°
2026-05-05 17:13 29.51767 67.17145 36988 ft 524 kts 39°
2026-05-05 17:13 29.56746 67.23245 36977 ft 524 kts 39°
2026-05-05 17:14 29.61736 67.29369 36958 ft 524 kts 39°
2026-05-05 17:14 29.66717 67.35486 36957 ft 524 kts 39°
2026-05-05 17:15 29.71687 67.41602 36948 ft 523 kts 39°
2026-05-05 17:15 29.76656 67.47717 36931 ft 523 kts 39°
2026-05-05 17:16 29.81640 67.53832 36933 ft 523 kts 39°
2026-05-05 17:16 29.86618 67.59955 36940 ft 524 kts 39°
2026-05-05 17:17 29.91591 67.66083 36936 ft 523 kts 39°
2026-05-05 17:17 29.96524 67.72171 36942 ft 522 kts 39°
2026-05-05 17:18 30.01479 67.78297 36954 ft 522 kts 39°
2026-05-05 17:18 30.06430 67.84426 36968 ft 521 kts 39°
2026-05-05 17:19 30.11377 67.90547 36984 ft 520 kts 39°
2026-05-05 17:19 30.16321 67.96606 36996 ft 519 kts 38°
2026-05-05 17:20 30.21291 68.02709 37029 ft 517 kts 39°
2026-05-05 17:20 30.26180 68.08734 36996 ft 517 kts 39°
2026-05-05 17:21 30.31113 68.14815 36998 ft 517 kts 39°
2026-05-05 17:22 30.38492 68.23930 37002 ft 517 kts 39°
2026-05-05 17:22 30.43409 68.30016 36996 ft 517 kts 39°
2026-05-05 17:23 30.48301 68.36082 36997 ft 517 kts 39°
2026-05-05 17:23 30.53223 68.42193 36991 ft 518 kts 39°
2026-05-05 17:24 30.58141 68.48313 36978 ft 518 kts 39°
2026-05-05 17:24 30.63049 68.54427 36979 ft 518 kts 39°
2026-05-05 17:25 30.67963 68.60558 36991 ft 518 kts 39°
2026-05-05 17:25 30.72871 68.66694 36971 ft 518 kts 39°
2026-05-05 17:26 30.77778 68.72837 36973 ft 518 kts 39°
2026-05-05 17:26 30.82679 68.78983 36971 ft 518 kts 39°
2026-05-05 17:27 30.87577 68.85134 36969 ft 518 kts 39°
2026-05-05 17:27 30.92465 68.91284 36969 ft 518 kts 39°
2026-05-05 17:28 30.97321 68.97405 36959 ft 517 kts 39°
2026-05-05 17:28 31.02202 69.03566 36969 ft 517 kts 39°
2026-05-05 17:29 31.07080 69.09730 36978 ft 517 kts 39°
2026-05-05 17:29 31.11959 69.15907 36982 ft 517 kts 39°
2026-05-05 17:30 31.16831 69.22088 36981 ft 517 kts 39°
2026-05-05 17:30 31.21556 69.28091 36982 ft 517 kts 39°
2026-05-05 17:31 31.26429 69.34289 36964 ft 517 kts 39°
2026-05-05 17:31 31.31292 69.40485 36976 ft 517 kts 39°
2026-05-05 17:32 31.36420 69.46267 36984 ft 505 kts 29°
2026-05-05 17:32 31.42245 69.50653 36991 ft 496 kts 22°
2026-05-05 17:33 31.48117 69.54797 36995 ft 496 kts 22°
2026-05-05 17:33 31.53917 69.58906 36995 ft 497 kts 22°
2026-05-05 17:34 31.59843 69.63103 37000 ft 497 kts 22°
2026-05-05 17:34 31.65766 69.67302 37001 ft 497 kts 22°
2026-05-05 17:35 31.71678 69.71498 36998 ft 497 kts 22°
2026-05-05 17:35 31.77546 69.75669 36994 ft 496 kts 22°
2026-05-05 17:36 31.83463 69.79883 36988 ft 495 kts 22°
2026-05-05 17:36 31.89333 69.84073 36982 ft 493 kts 22°
2026-05-05 17:37 31.95202 69.88262 36975 ft 493 kts 22°
2026-05-05 17:37 32.01059 69.92452 36965 ft 491 kts 22°
2026-05-05 17:38 32.06905 69.96640 36955 ft 490 kts 22°
2026-05-05 17:38 32.12712 70.00804 36945 ft 489 kts 22°
2026-05-05 17:39 32.18527 70.04982 36944 ft 488 kts 22°
2026-05-05 17:39 32.24326 70.09154 36947 ft 487 kts 23°
2026-05-05 17:40 32.30104 70.13320 36939 ft 485 kts 22°
2026-05-05 17:40 32.35863 70.17482 36919 ft 485 kts 22°
2026-05-05 17:41 32.41616 70.21549 36924 ft 484 kts 21°
2026-05-05 17:41 32.47441 70.25559 36926 ft 484 kts 21°
2026-05-05 17:42 32.53240 70.29579 36929 ft 484 kts 22°
2026-05-05 17:42 32.59055 70.33628 36921 ft 484 kts 22°
2026-05-05 17:43 32.64863 70.37683 36911 ft 485 kts 22°
2026-05-05 17:43 32.70573 70.42010 36918 ft 488 kts 25°
2026-05-05 17:44 32.76262 70.46418 36917 ft 488 kts 24°
2026-05-05 17:44 32.81975 70.50801 36923 ft 488 kts 24°
2026-05-05 17:45 32.86734 70.54443 36927 ft 489 kts 24°
2026-05-05 17:45 32.92450 70.58823 36929 ft 489 kts 25°
2026-05-05 17:46 32.98199 70.63147 36936 ft 487 kts 23°
2026-05-05 17:46 33.03973 70.67382 36941 ft 487 kts 24°
2026-05-05 17:47 33.09707 70.71613 36940 ft 487 kts 24°
2026-05-05 17:47 33.15450 70.75871 36954 ft 486 kts 24°
2026-05-05 17:48 33.21195 70.80138 36959 ft 485 kts 24°
2026-05-05 17:48 33.26931 70.84406 36958 ft 486 kts 24°
2026-05-05 17:49 33.32659 70.88675 36981 ft 485 kts 24°
2026-05-05 17:49 33.38257 70.92853 36984 ft 484 kts 24°
2026-05-05 17:50 33.43972 70.97124 36988 ft 483 kts 24°
2026-05-05 17:50 33.49565 71.01598 36993 ft 488 kts 31°
2026-05-05 17:51 33.54695 71.06903 36981 ft 489 kts 33°
2026-05-05 17:51 33.59854 71.12214 36971 ft 488 kts 33°
2026-05-05 17:52 33.65001 71.17525 36966 ft 488 kts 33°
2026-05-05 17:52 33.70144 71.22851 36968 ft 488 kts 33°
2026-05-05 17:53 33.75288 71.28191 36963 ft 489 kts 33°
2026-05-05 17:53 33.80438 71.33542 36958 ft 489 kts 34°
2026-05-05 17:54 33.85584 71.38900 36946 ft 490 kts 34°
2026-05-05 17:54 33.90732 71.44271 36950 ft 490 kts 34°
2026-05-05 17:55 33.95848 71.49617 36949 ft 489 kts 34°
2026-05-05 17:55 34.00618 71.55579 36949 ft 497 kts 43°
2026-05-05 17:56 34.05121 71.61891 36946 ft 497 kts 43°
2026-05-05 17:56 34.09643 71.68200 36940 ft 497 kts 43°
2026-05-05 17:57 34.14160 71.74526 36935 ft 496 kts 43°
2026-05-05 17:57 34.18657 71.80840 36927 ft 496 kts 43°
2026-05-05 17:58 34.23162 71.87177 36926 ft 496 kts 43°
2026-05-05 17:58 34.27632 71.93476 36924 ft 496 kts 43°
2026-05-05 17:59 34.32118 71.99809 36931 ft 496 kts 43°
2026-05-05 17:59 34.36616 72.06170 36940 ft 496 kts 43°
2026-05-05 18:00 34.41102 72.12525 36951 ft 496 kts 43°
2026-05-05 18:00 34.45588 72.18891 36966 ft 496 kts 43°
2026-05-05 18:01 34.50065 72.25259 36986 ft 496 kts 44°
2026-05-05 18:01 34.54501 72.31580 36995 ft 495 kts 44°
2026-05-05 18:02 34.58961 72.37942 36980 ft 492 kts 44°
2026-05-05 18:02 34.63398 72.44292 36991 ft 493 kts 44°
2026-05-05 18:03 34.67838 72.50645 37003 ft 493 kts 44°
2026-05-05 18:03 34.72280 72.57011 37007 ft 497 kts 44°
2026-05-05 18:04 34.76733 72.63417 37043 ft 495 kts 44°
2026-05-05 18:04 34.81172 72.69811 37059 ft 494 kts 44°
2026-05-05 18:05 34.85596 72.76195 37059 ft 493 kts 44°
2026-05-05 18:05 34.90027 72.82596 37068 ft 494 kts 44°
2026-05-05 18:06 34.94420 72.88957 37082 ft 494 kts 45°
2026-05-05 18:06 34.98692 72.95160 37105 ft 494 kts 45°
2026-05-05 18:07 35.03104 73.01578 37095 ft 493 kts 45°
2026-05-05 18:07 35.07507 73.07987 37110 ft 493 kts 45°
2026-05-05 18:08 35.11914 73.14421 37124 ft 494 kts 45°
2026-05-05 18:08 35.16325 73.20871 37140 ft 495 kts 45°
2026-05-05 18:09 35.20744 73.27344 37159 ft 496 kts 45°
2026-05-05 18:09 35.25168 73.33839 37168 ft 497 kts 45°
2026-05-05 18:10 35.29598 73.40349 37180 ft 498 kts 46°
2026-05-05 18:10 35.34030 73.46878 37183 ft 499 kts 46°
2026-05-05 18:11 35.38433 73.53378 37177 ft 498 kts 46°
2026-05-05 18:11 35.42857 73.59922 37176 ft 498 kts 46°
2026-05-05 18:12 35.47272 73.66464 37182 ft 498 kts 46°
2026-05-05 18:12 35.51677 73.73005 37153 ft 496 kts 46°
2026-05-05 18:13 35.56065 73.79534 37144 ft 494 kts 46°
2026-05-05 18:13 35.60439 73.86044 37141 ft 494 kts 47°
2026-05-05 18:14 35.64802 73.92559 37139 ft 493 kts 47°
2026-05-05 18:14 35.69160 73.99074 37150 ft 494 kts 47°
2026-05-05 18:15 35.73515 74.05601 37156 ft 492 kts 47°
2026-05-05 18:15 35.77840 74.12097 37150 ft 493 kts 47°
2026-05-05 18:16 35.82188 74.18637 37166 ft 494 kts 47°
2026-05-05 18:16 35.86545 74.25203 37178 ft 495 kts 47°
2026-05-05 18:17 35.90917 74.31779 37185 ft 495 kts 45°
2026-05-05 18:17 35.95937 74.37531 37193 ft 491 kts 36°
2026-05-05 18:18 36.01182 74.42937 37205 ft 492 kts 37°
2026-05-05 18:18 36.06420 74.48374 37213 ft 492 kts 37°
2026-05-05 18:19 36.11657 74.53820 37230 ft 492 kts 37°
2026-05-05 18:19 36.16883 74.59261 37224 ft 489 kts 37°
2026-05-05 18:20 36.22097 74.64691 37241 ft 489 kts 37°
2026-05-05 18:20 36.27270 74.70090 37267 ft 490 kts 37°
2026-05-05 18:21 36.32488 74.75547 37275 ft 491 kts 38°
2026-05-05 18:21 36.37700 74.81006 37282 ft 490 kts 38°
2026-05-05 18:22 36.42923 74.86491 37287 ft 491 kts 38°
2026-05-05 18:22 36.48130 74.91967 37290 ft 490 kts 38°
2026-05-05 18:23 36.53318 74.97443 37272 ft 487 kts 38°
2026-05-05 18:23 36.58454 75.02858 37253 ft 488 kts 38°
2026-05-05 18:24 36.63653 75.08350 37277 ft 489 kts 38°
2026-05-05 18:24 36.68837 75.13842 37292 ft 491 kts 38°
2026-05-05 18:25 36.74039 75.19362 37303 ft 491 kts 38°
2026-05-05 18:25 36.79236 75.24888 37316 ft 492 kts 39°
2026-05-05 18:26 36.84453 75.30446 37323 ft 492 kts 39°
2026-05-05 18:26 36.89626 75.36061 37315 ft 493 kts 44°
2026-05-05 18:26 36.91798 75.39379 37319 ft 495 kts 55°
2026-05-05 18:27 36.93424 75.43179 37314 ft 498 kts 66°
2026-05-05 18:27 36.94441 75.47325 37313 ft 500 kts 78°
2026-05-05 18:27 36.94821 75.51594 37317 ft 501 kts 86°
2026-05-05 18:28 36.95131 75.64675 37291 ft 501 kts 86°
2026-05-05 18:28 36.95428 75.73389 37288 ft 501 kts 86°
2026-05-05 18:29 36.95750 75.82112 37278 ft 502 kts 86°
2026-05-05 18:29 36.96061 75.90635 37259 ft 501 kts 86°
2026-05-05 18:30 36.96370 75.99341 37259 ft 502 kts 86°
2026-05-05 18:30 36.96622 76.06593 37259 ft 502 kts 86°
2026-05-05 18:31 36.96968 76.16742 37267 ft 502 kts 86°
2026-05-05 18:31 36.97259 76.25476 37264 ft 502 kts 86°
2026-05-05 18:32 36.97497 76.32742 37262 ft 503 kts 86°
2026-05-05 18:32 36.97777 76.41469 37258 ft 502 kts 86°
2026-05-05 18:33 36.98048 76.50208 37253 ft 502 kts 86°
2026-05-05 18:33 36.98314 76.58943 37251 ft 503 kts 87°
2026-05-05 18:34 36.98574 76.67678 37232 ft 503 kts 87°
2026-05-05 18:34 36.98827 76.76404 37226 ft 503 kts 87°
2026-05-05 18:35 36.99075 76.85165 37216 ft 502 kts 87°
2026-05-05 18:35 36.99315 76.93893 37205 ft 502 kts 87°
2026-05-05 18:36 36.99548 77.02579 37205 ft 502 kts 87°
2026-05-05 18:36 36.99775 77.11295 37203 ft 502 kts 87°
2026-05-05 18:37 36.99997 77.20029 37200 ft 501 kts 88°
2026-05-05 18:37 37.00211 77.28749 37198 ft 501 kts 88°
2026-05-05 18:38 37.00419 77.37473 37197 ft 501 kts 88°
2026-05-05 18:38 37.00621 77.46191 37187 ft 501 kts 88°
2026-05-05 18:39 37.00815 77.54906 37190 ft 501 kts 88°
2026-05-05 18:39 37.01003 77.63556 37190 ft 501 kts 88°
2026-05-05 18:40 37.01187 77.72338 37187 ft 501 kts 88°
2026-05-05 18:40 37.01362 77.80998 37183 ft 501 kts 88°
2026-05-05 18:41 37.01532 77.89719 37170 ft 501 kts 88°
2026-05-05 18:41 37.01692 77.98242 37169 ft 500 kts 88°
2026-05-05 18:42 37.01849 78.06951 37160 ft 500 kts 89°
2026-05-05 18:42 37.01999 78.15640 37151 ft 499 kts 89°
2026-05-05 18:43 37.02143 78.24333 37135 ft 499 kts 89°
2026-05-05 18:43 37.02280 78.32961 37130 ft 499 kts 89°
2026-05-05 18:44 37.02411 78.41640 37111 ft 498 kts 89°
2026-05-05 18:44 37.02537 78.50307 37098 ft 498 kts 89°
2026-05-05 18:45 37.02655 78.58973 37077 ft 498 kts 89°
2026-05-05 18:45 37.02767 78.67639 37059 ft 498 kts 89°
2026-05-05 18:46 37.02873 78.76297 37046 ft 498 kts 89°
2026-05-05 18:46 37.02972 78.84969 37033 ft 498 kts 89°
2026-05-05 18:47 37.03066 78.93657 37020 ft 499 kts 89°
2026-05-05 18:47 37.03152 79.02274 37009 ft 500 kts 89°
2026-05-05 18:48 37.03233 79.10990 37002 ft 501 kts 90°
2026-05-05 18:48 37.03308 79.19727 36998 ft 501 kts 90°
2026-05-05 18:49 37.03376 79.28451 36996 ft 502 kts 90°
2026-05-05 18:49 37.03438 79.37190 36996 ft 502 kts 90°
2026-05-05 18:50 37.03494 79.45883 36983 ft 502 kts 90°
2026-05-05 18:50 37.03543 79.54605 36975 ft 502 kts 90°
2026-05-05 18:51 37.03586 79.63391 36970 ft 502 kts 90°
2026-05-05 18:51 37.03624 79.72132 36960 ft 502 kts 90°
2026-05-05 18:52 37.03658 79.80805 36957 ft 502 kts 90°
2026-05-05 18:52 37.04277 79.89509 36945 ft 503 kts 78°
2026-05-05 18:53 37.06112 79.97985 36938 ft 504 kts 75°
2026-05-05 18:53 37.07966 80.06470 36931 ft 505 kts 75°
2026-05-05 18:54 37.09813 80.14963 36923 ft 505 kts 75°
2026-05-05 18:54 37.11646 80.23427 36929 ft 506 kts 76°
2026-05-05 18:55 37.13483 80.31943 36916 ft 507 kts 76°
2026-05-05 18:55 37.15321 80.40493 36914 ft 508 kts 76°
2026-05-05 18:56 37.17153 80.49052 36902 ft 509 kts 76°
2026-05-05 18:56 37.18983 80.57631 36909 ft 509 kts 76°
2026-05-05 18:57 37.20808 80.66223 36907 ft 510 kts 76°
2026-05-05 18:57 37.22633 80.74848 36907 ft 511 kts 76°
2026-05-05 18:58 37.24453 80.83482 36898 ft 511 kts 76°
2026-05-05 18:58 37.26255 80.92067 36897 ft 512 kts 76°
2026-05-05 18:59 37.28068 81.00734 36899 ft 513 kts 76°
2026-05-05 18:59 37.29875 81.09411 36903 ft 513 kts 77°
2026-05-05 19:00 37.31680 81.18110 36903 ft 514 kts 77°
2026-05-05 19:00 37.33474 81.26793 36904 ft 515 kts 77°
2026-05-05 19:01 37.35270 81.35517 36901 ft 515 kts 77°
2026-05-05 19:01 37.37046 81.44183 36905 ft 515 kts 77°
2026-05-05 19:02 37.38833 81.52938 36897 ft 516 kts 77°
2026-05-05 19:02 37.40611 81.61685 36900 ft 516 kts 77°
2026-05-05 19:03 37.42385 81.70448 36908 ft 517 kts 77°
2026-05-05 19:03 37.44154 81.79216 36902 ft 517 kts 77°
2026-05-05 19:04 37.45920 81.88011 36903 ft 517 kts 77°
2026-05-05 19:04 37.47667 81.96747 36899 ft 518 kts 77°
2026-05-05 19:05 37.49418 82.05543 36895 ft 518 kts 77°
2026-05-05 19:05 37.51164 82.14345 36892 ft 518 kts 78°
2026-05-05 19:06 37.52904 82.23156 36884 ft 518 kts 78°
2026-05-05 19:06 37.54639 82.31981 36885 ft 519 kts 78°
2026-05-05 19:07 37.56367 82.40808 36886 ft 519 kts 78°
2026-05-05 19:07 37.58091 82.49653 36884 ft 519 kts 78°
2026-05-05 19:08 37.59810 82.58508 36880 ft 520 kts 78°
2026-05-05 19:08 37.61526 82.67384 36881 ft 521 kts 78°
2026-05-05 19:09 37.63225 82.76211 36881 ft 521 kts 78°
2026-05-05 19:09 37.64930 82.85112 36881 ft 522 kts 78°
2026-05-05 19:10 37.66633 82.94037 36879 ft 523 kts 78°
2026-05-05 19:10 37.68324 83.02944 36888 ft 524 kts 78°
2026-05-05 19:11 37.70021 83.11914 36891 ft 524 kts 78°
2026-05-05 19:11 37.71712 83.20896 36891 ft 525 kts 78°
2026-05-05 19:12 37.73387 83.29824 36897 ft 526 kts 78°
2026-05-05 19:12 37.75072 83.38822 36899 ft 526 kts 78°
2026-05-05 19:13 37.76743 83.47834 36901 ft 527 kts 78°
2026-05-05 19:13 37.78416 83.56867 36902 ft 527 kts 78°
2026-05-05 19:14 37.80085 83.65911 36903 ft 528 kts 78°
2026-05-05 19:14 37.81736 83.74904 36909 ft 528 kts 78°
2026-05-05 19:15 37.83389 83.83948 36906 ft 529 kts 78°
2026-05-05 19:15 37.85041 83.93024 36901 ft 529 kts 78°
2026-05-05 19:16 37.86684 84.02100 36902 ft 530 kts 78°
2026-05-05 19:16 37.88327 84.11215 36902 ft 530 kts 78°
2026-05-05 19:17 37.89960 84.20318 36905 ft 530 kts 78°
2026-05-05 19:17 37.91587 84.29429 36902 ft 531 kts 78°
2026-05-05 19:18 37.93207 84.38548 36907 ft 531 kts 78°
2026-05-05 19:18 37.94822 84.47683 36908 ft 531 kts 78°
2026-05-05 19:19 37.96431 84.56822 36912 ft 532 kts 78°
2026-05-05 19:19 37.98024 84.65918 36914 ft 532 kts 78°
2026-05-05 19:20 37.99362 84.73592 36918 ft 532 kts 79°
2026-05-05 19:20 38.00945 84.82709 36917 ft 532 kts 78°
2026-05-05 19:21 38.03390 84.91561 36923 ft 533 kts 65°
2026-05-05 19:21 38.06417 85.00164 36922 ft 534 kts 66°
2026-05-05 19:22 38.09419 85.08808 36929 ft 534 kts 66°
2026-05-05 19:22 38.12407 85.17437 36930 ft 535 kts 66°
2026-05-05 19:23 38.15399 85.26092 36930 ft 535 kts 66°
2026-05-05 19:23 38.18386 85.34761 36933 ft 535 kts 66°
2026-05-05 19:24 38.21208 85.43505 36932 ft 534 kts 73°
2026-05-05 19:24 38.22698 85.52689 36928 ft 533 kts 83°
2026-05-05 19:25 38.23836 85.62010 36932 ft 533 kts 82°
2026-05-05 19:25 38.24987 85.71322 36929 ft 533 kts 82°
2026-05-05 19:26 38.26123 85.80646 36930 ft 533 kts 82°
2026-05-05 19:26 38.27250 85.89993 36928 ft 534 kts 82°
2026-05-05 19:27 38.28367 85.99325 36931 ft 534 kts 82°
2026-05-05 19:27 38.29478 86.08667 36927 ft 534 kts 82°
2026-05-05 19:28 38.30577 86.17973 36924 ft 534 kts 82°
2026-05-05 19:28 38.31674 86.27332 36930 ft 535 kts 82°
2026-05-05 19:29 38.32764 86.36695 36934 ft 535 kts 82°
2026-05-05 19:29 38.33849 86.46078 36936 ft 535 kts 82°
2026-05-05 19:30 38.34902 86.55257 36935 ft 536 kts 82°
2026-05-05 19:30 38.35974 86.64665 36935 ft 536 kts 82°
2026-05-05 19:31 38.37039 86.74078 36941 ft 537 kts 82°
2026-05-05 19:31 38.38095 86.83490 36951 ft 537 kts 82°
2026-05-05 19:32 38.39146 86.92915 36947 ft 537 kts 82°
2026-05-05 19:32 38.40191 87.02367 36953 ft 537 kts 82°
2026-05-05 19:33 38.41209 87.11639 36958 ft 538 kts 82°
2026-05-05 19:33 38.42238 87.21087 36955 ft 538 kts 82°
2026-05-05 19:34 38.43262 87.30554 36959 ft 538 kts 82°
2026-05-05 19:35 38.44783 87.44763 36956 ft 538 kts 83°
2026-05-05 19:35 38.45787 87.54230 36965 ft 538 kts 83°
2026-05-05 19:36 38.46763 87.63507 36966 ft 539 kts 83°
2026-05-05 19:36 38.47746 87.72926 36973 ft 539 kts 83°
2026-05-05 19:37 38.48735 87.82468 36989 ft 539 kts 83°
2026-05-05 19:37 38.49705 87.91921 36980 ft 540 kts 83°
2026-05-05 19:38 38.50673 88.01421 37011 ft 540 kts 83°
2026-05-05 19:38 38.51634 88.10932 37007 ft 540 kts 83°
2026-05-05 19:39 38.52588 88.20449 37017 ft 539 kts 83°
2026-05-05 19:39 38.53534 88.29965 37028 ft 540 kts 83°
2026-05-05 19:39 38.54007 88.34754 37202 ft 543 kts 83°
2026-05-05 19:40 38.54475 88.39516 37597 ft 542 kts 83°
2026-05-05 19:40 38.54943 88.44300 37965 ft 541 kts 83°
2026-05-05 19:40 38.55408 88.49067 38307 ft 542 kts 83°
2026-05-05 19:40 38.55870 88.53842 38661 ft 541 kts 83°
2026-05-05 19:41 38.56331 88.58606 38947 ft 541 kts 83°
2026-05-05 19:41 38.56793 88.63389 39057 ft 544 kts 83°
2026-05-05 19:41 38.57253 88.68160 39068 ft 537 kts 83°
2026-05-05 19:42 38.58329 88.77548 39070 ft 539 kts 79°
2026-05-05 19:42 38.59767 88.86944 39071 ft 538 kts 79°
2026-05-05 19:43 38.61156 88.96365 39078 ft 538 kts 79°
2026-05-05 19:43 38.62496 89.05799 39081 ft 539 kts 79°
2026-05-05 19:44 38.63824 89.15240 39112 ft 540 kts 79°
2026-05-05 19:44 38.65147 89.24708 39097 ft 540 kts 79°
2026-05-05 19:45 38.66462 89.34170 39111 ft 539 kts 80°
2026-05-05 19:45 38.67766 89.43616 39105 ft 539 kts 80°
2026-05-05 19:46 38.69062 89.53059 39102 ft 539 kts 80°
2026-05-05 19:46 38.70339 89.62420 39104 ft 538 kts 80°
2026-05-05 19:47 38.71623 89.71892 39102 ft 538 kts 80°
2026-05-05 19:47 38.72896 89.81345 39104 ft 537 kts 80°
2026-05-05 19:48 38.74158 89.90766 39098 ft 536 kts 80°
2026-05-05 19:48 38.75410 90.00186 39094 ft 536 kts 80°
2026-05-05 19:49 38.76645 90.09530 39097 ft 536 kts 80°
2026-05-05 19:49 38.77881 90.18940 39099 ft 535 kts 81°
2026-05-05 19:50 38.79109 90.28353 39103 ft 535 kts 81°
2026-05-05 19:50 38.80332 90.37775 39107 ft 535 kts 81°
2026-05-05 19:51 38.81547 90.47207 39109 ft 536 kts 81°
2026-05-05 19:51 38.82753 90.56631 39115 ft 536 kts 81°
2026-05-05 19:52 38.83959 90.66105 39122 ft 537 kts 81°
2026-05-05 19:52 38.85146 90.75504 39128 ft 538 kts 81°
2026-05-05 19:53 38.86337 90.84985 39131 ft 538 kts 81°
2026-05-05 19:53 38.87518 90.94458 39128 ft 538 kts 81°
2026-05-05 19:54 38.88911 91.03914 39127 ft 538 kts 77°
2026-05-05 19:54 38.90476 91.13330 39130 ft 539 kts 78°
2026-05-05 19:55 38.91987 91.22748 39126 ft 539 kts 78°
2026-05-05 19:55 38.93470 91.32182 39130 ft 539 kts 78°
2026-05-05 19:56 38.94946 91.41651 39136 ft 539 kts 78°
2026-05-05 19:56 38.96412 91.51095 39138 ft 539 kts 78°
2026-05-05 19:57 38.97870 91.60540 39141 ft 538 kts 78°
2026-05-05 19:57 38.99312 91.69935 39133 ft 539 kts 78°
2026-05-05 19:58 39.00754 91.79386 39135 ft 538 kts 78°
2026-05-05 19:58 39.02190 91.88849 39127 ft 538 kts 79°
2026-05-05 19:59 39.03615 91.98298 39120 ft 538 kts 79°
2026-05-05 19:59 39.05031 92.07736 39114 ft 538 kts 79°
2026-05-05 20:00 39.06431 92.17120 39110 ft 537 kts 79°
2026-05-05 20:00 39.07831 92.26561 39104 ft 537 kts 79°
2026-05-05 20:01 39.09208 92.36007 39110 ft 537 kts 79°
2026-05-05 20:01 39.10544 92.45466 39109 ft 537 kts 79°
2026-05-05 20:02 39.11882 92.54914 39106 ft 536 kts 79°
2026-05-05 20:02 39.13216 92.64373 39103 ft 536 kts 79°
2026-05-05 20:03 39.14539 92.73827 39101 ft 536 kts 79°
2026-05-05 20:03 39.15855 92.83289 39101 ft 536 kts 80°
2026-05-05 20:04 39.17162 92.92741 39096 ft 536 kts 80°
2026-05-05 20:04 39.18462 93.02206 39099 ft 536 kts 80°
2026-05-05 20:05 39.19754 93.11679 39095 ft 536 kts 80°
2026-05-05 20:05 39.21032 93.21102 39101 ft 537 kts 80°
2026-05-05 20:06 39.22311 93.30595 39105 ft 538 kts 80°
2026-05-05 20:06 39.23586 93.40113 39110 ft 538 kts 80°
2026-05-05 20:07 39.24640 93.48032 39112 ft 538 kts 80°
2026-05-05 20:07 39.25899 93.57547 39118 ft 538 kts 80°
2026-05-05 20:08 39.27150 93.67065 39106 ft 538 kts 80°
2026-05-05 20:08 39.28395 93.76583 39107 ft 539 kts 80°
2026-05-05 20:09 39.29625 93.86062 39104 ft 537 kts 81°
2026-05-05 20:09 39.30849 93.95578 39083 ft 537 kts 81°
2026-05-05 20:10 39.32063 94.05066 39091 ft 535 kts 81°
2026-05-05 20:10 39.33270 94.14554 39053 ft 535 kts 81°
2026-05-05 20:11 39.34470 94.24054 39061 ft 535 kts 81°
2026-05-05 20:11 39.35663 94.33552 39047 ft 536 kts 81°
2026-05-05 20:12 39.36849 94.43076 39062 ft 537 kts 81°
2026-05-05 20:12 39.38022 94.52556 39072 ft 538 kts 81°
2026-05-05 20:13 39.39196 94.62101 39070 ft 538 kts 82°
2026-05-05 20:13 39.40363 94.71674 39069 ft 539 kts 82°
2026-05-05 20:14 39.41525 94.81258 39097 ft 539 kts 82°
2026-05-05 20:14 39.42676 94.90834 39092 ft 539 kts 82°
2026-05-05 20:15 39.43823 95.00420 39103 ft 540 kts 82°
2026-05-05 20:15 39.44963 95.10040 39107 ft 540 kts 82°
2026-05-05 20:16 39.46088 95.19596 39118 ft 540 kts 82°
2026-05-05 20:16 39.47219 95.29274 39125 ft 540 kts 82°
2026-05-05 20:17 39.48326 95.38819 39133 ft 540 kts 82°
2026-05-05 20:17 39.49435 95.48449 39135 ft 540 kts 82°
2026-05-05 20:18 39.50535 95.58071 39130 ft 539 kts 82°
2026-05-05 20:18 39.51623 95.67666 39129 ft 539 kts 83°
2026-05-05 20:19 39.52704 95.77262 39128 ft 538 kts 83°
2026-05-05 20:19 39.53777 95.86854 39117 ft 536 kts 83°
2026-05-05 20:20 39.54835 95.96405 39111 ft 535 kts 83°
2026-05-05 20:20 39.55890 96.05962 39107 ft 535 kts 83°
2026-05-05 20:21 39.56982 96.15480 39104 ft 534 kts 82°
2026-05-05 20:21 39.58247 96.24908 39117 ft 534 kts 81°
2026-05-05 20:22 39.59518 96.34480 39124 ft 535 kts 82°
2026-05-05 20:22 39.60739 96.43908 39116 ft 533 kts 82°
2026-05-05 20:23 39.61957 96.53400 39110 ft 533 kts 82°
2026-05-05 20:23 39.63165 96.62874 39104 ft 532 kts 82°
2026-05-05 20:24 39.64438 96.72336 39094 ft 532 kts 81°
2026-05-05 20:24 39.65739 96.81817 39099 ft 533 kts 81°
2026-05-05 20:25 39.67017 96.91287 39092 ft 533 kts 81°
2026-05-05 20:25 39.68280 97.00720 39092 ft 534 kts 82°
2026-05-05 20:26 39.69540 97.10211 39084 ft 535 kts 82°
2026-05-05 20:26 39.70800 97.19762 39103 ft 537 kts 82°
2026-05-05 20:27 39.72053 97.29326 39107 ft 538 kts 82°
2026-05-05 20:27 39.73326 97.38908 39110 ft 539 kts 81°
2026-05-05 20:28 39.74601 97.48494 39101 ft 539 kts 82°
2026-05-05 20:28 39.75844 97.58073 39091 ft 538 kts 82°
2026-05-05 20:29 39.76941 97.67731 39084 ft 539 kts 83°
2026-05-05 20:29 39.78020 97.77360 39072 ft 539 kts 83°
2026-05-05 20:30 39.79107 97.86975 39068 ft 539 kts 83°
2026-05-05 20:30 39.80188 97.96575 39059 ft 539 kts 83°
2026-05-05 20:31 39.81268 98.06230 39049 ft 539 kts 83°
2026-05-05 20:31 39.82337 98.15876 39044 ft 539 kts 83°
2026-05-05 20:32 39.83400 98.25531 39038 ft 539 kts 83°
2026-05-05 20:32 39.84248 98.35208 39026 ft 537 kts 90°
2026-05-05 20:33 39.83942 98.44877 39024 ft 534 kts 98°
2026-05-05 20:33 39.83346 98.54506 39025 ft 534 kts 97°
2026-05-05 20:34 39.82759 98.64151 39026 ft 534 kts 98°
2026-05-05 20:34 39.82156 98.73791 39028 ft 534 kts 98°
2026-05-05 20:35 39.81547 98.83362 39029 ft 534 kts 98°
2026-05-05 20:35 39.80926 98.92992 39027 ft 534 kts 98°
2026-05-05 20:36 39.80228 99.02601 39022 ft 533 kts 100°
2026-05-05 20:36 39.79375 99.12175 39024 ft 533 kts 100°
2026-05-05 20:37 39.78540 99.21741 39023 ft 533 kts 100°
2026-05-05 20:37 39.77710 99.31324 39024 ft 533 kts 100°
2026-05-05 20:38 39.76889 99.40711 39026 ft 534 kts 100°
2026-05-05 20:38 39.76045 99.50279 39027 ft 533 kts 100°
2026-05-05 20:39 39.75190 99.59867 39027 ft 534 kts 100°
2026-05-05 20:39 39.74327 99.69460 39027 ft 534 kts 101°
2026-05-05 20:40 39.73461 99.78992 39032 ft 534 kts 101°
2026-05-05 20:40 39.72583 99.88571 39032 ft 534 kts 101°
2026-05-05 20:41 39.71699 99.98122 39034 ft 534 kts 101°
2026-05-05 20:41 39.70805 100.07698 39033 ft 534 kts 101°
2026-05-05 20:42 39.69902 100.17285 39033 ft 533 kts 101°
2026-05-05 20:42 39.68993 100.26845 39029 ft 533 kts 101°
2026-05-05 20:43 39.68077 100.36395 39030 ft 533 kts 102°
2026-05-05 20:43 39.67154 100.45936 39026 ft 533 kts 102°
2026-05-05 20:44 39.66229 100.55425 39026 ft 532 kts 102°
2026-05-05 20:44 39.65310 100.64753 39026 ft 532 kts 102°
2026-05-05 20:45 39.63889 100.79038 39024 ft 532 kts 102°
2026-05-05 20:45 39.62931 100.88562 39020 ft 532 kts 102°
2026-05-05 20:46 39.61967 100.98079 39018 ft 533 kts 102°
2026-05-05 20:46 39.61093 101.06630 39015 ft 533 kts 102°
2026-05-05 20:47 39.60111 101.16165 39013 ft 533 kts 102°
2026-05-05 20:47 39.59120 101.25706 39014 ft 533 kts 102°
2026-05-05 20:48 39.58465 101.34863 39006 ft 536 kts 99°
2026-05-05 20:48 39.57888 101.44517 39010 ft 537 kts 99°
2026-05-05 20:49 39.57307 101.53958 39010 ft 537 kts 99°
2026-05-05 20:49 39.56697 101.63615 39011 ft 538 kts 99°
2026-05-05 20:50 39.56078 101.73289 39012 ft 538 kts 99°
2026-05-05 20:50 39.55464 101.82759 39008 ft 539 kts 99°
2026-05-05 20:51 39.54826 101.92471 39008 ft 540 kts 99°
2026-05-05 20:51 39.54185 102.02120 39011 ft 542 kts 99°
2026-05-05 20:52 39.53529 102.11858 39007 ft 543 kts 100°
2026-05-05 20:52 39.52864 102.21604 39011 ft 544 kts 100°
2026-05-05 20:53 39.52189 102.31380 39008 ft 544 kts 100°
2026-05-05 20:53 39.51506 102.41154 39003 ft 545 kts 100°
2026-05-05 20:54 39.50815 102.50923 39002 ft 545 kts 100°
2026-05-05 20:54 39.50114 102.60721 39008 ft 546 kts 100°
2026-05-05 20:55 39.49406 102.70499 39011 ft 545 kts 100°
2026-05-05 20:55 39.48690 102.80261 39007 ft 545 kts 100°
2026-05-05 20:56 39.47967 102.90013 39004 ft 544 kts 100°
2026-05-05 20:56 39.47953 102.99845 38998 ft 551 kts 87°
2026-05-05 20:57 39.49455 103.09528 38993 ft 555 kts 75°
2026-05-05 20:57 39.51627 103.19178 38981 ft 555 kts 76°
2026-05-05 20:58 39.53744 103.28790 38978 ft 555 kts 76°
2026-05-05 20:58 39.55841 103.38352 38980 ft 555 kts 76°
2026-05-05 20:59 39.57945 103.47973 38983 ft 555 kts 76°
2026-05-05 20:59 39.60046 103.57624 38981 ft 556 kts 76°
2026-05-05 21:00 39.62143 103.67299 38983 ft 557 kts 76°
2026-05-05 21:00 39.64233 103.76986 38987 ft 558 kts 76°
2026-05-05 21:01 39.66321 103.86707 38989 ft 558 kts 76°
2026-05-05 21:01 39.68390 103.96381 38984 ft 559 kts 76°
2026-05-05 21:02 39.70461 104.06106 38998 ft 560 kts 76°
2026-05-05 21:02 39.72529 104.15864 38983 ft 561 kts 76°
2026-05-05 21:03 39.74591 104.25637 38987 ft 561 kts 76°
2026-05-05 21:03 39.76647 104.35430 38985 ft 562 kts 76°
2026-05-05 21:04 39.78696 104.45233 38986 ft 562 kts 76°
2026-05-05 21:04 39.80742 104.55066 38986 ft 563 kts 76°
2026-05-05 21:05 39.82779 104.64901 38987 ft 563 kts 76°
2026-05-05 21:05 39.84807 104.74740 38986 ft 563 kts 76°
2026-05-05 21:06 39.86817 104.84534 38978 ft 563 kts 76°
2026-05-05 21:06 39.88836 104.94424 38978 ft 564 kts 76°
2026-05-05 21:07 39.90840 105.04287 38974 ft 564 kts 76°
2026-05-05 21:07 39.92841 105.14176 38968 ft 564 kts 76°
2026-05-05 21:08 39.94830 105.24055 38968 ft 564 kts 76°
2026-05-05 21:08 39.96802 105.33898 38956 ft 564 kts 76°
2026-05-05 21:09 39.98776 105.43797 38951 ft 564 kts 76°
2026-05-05 21:09 40.00766 105.53706 38945 ft 564 kts 75°
2026-05-05 21:10 40.02923 105.63571 38942 ft 564 kts 74°
2026-05-05 21:10 40.05030 105.73191 38944 ft 564 kts 74°
2026-05-05 21:11 40.07162 105.83068 38944 ft 565 kts 74°
2026-05-05 21:11 40.09279 105.92954 38942 ft 565 kts 74°
2026-05-05 21:12 40.11376 106.02790 38941 ft 566 kts 74°
2026-05-05 21:12 40.13494 106.12770 38939 ft 566 kts 74°
2026-05-05 21:13 40.15576 106.22626 38939 ft 567 kts 74°
2026-05-05 21:13 40.17666 106.32570 38942 ft 567 kts 74°
2026-05-05 21:14 40.19749 106.42521 38939 ft 568 kts 74°
2026-05-05 21:14 40.21772 106.52233 38939 ft 568 kts 74°
2026-05-05 21:15 40.23851 106.62262 38992 ft 571 kts 74°
2026-05-05 21:15 40.24886 106.67270 39306 ft 570 kts 74°
2026-05-05 21:15 40.25920 106.72290 39702 ft 568 kts 74°
2026-05-05 21:16 40.26941 106.77255 40063 ft 566 kts 74°
2026-05-05 21:16 40.27962 106.82238 40421 ft 564 kts 74°
2026-05-05 21:16 40.28975 106.87186 40777 ft 563 kts 74°
2026-05-05 21:16 40.29991 106.92165 40935 ft 566 kts 74°
2026-05-05 21:17 40.31559 107.02119 40948 ft 559 kts 81°
2026-05-05 21:17 40.32809 107.12210 40950 ft 562 kts 81°
2026-05-05 21:18 40.34076 107.22323 40951 ft 562 kts 81°
2026-05-05 21:18 40.35325 107.32444 40949 ft 563 kts 81°
2026-05-05 21:19 40.36561 107.42568 40950 ft 564 kts 81°
2026-05-05 21:19 40.37795 107.52746 40949 ft 564 kts 81°
2026-05-05 21:20 40.39018 107.62924 40948 ft 565 kts 81°
2026-05-05 21:20 40.40226 107.73043 40951 ft 566 kts 81°
2026-05-05 21:21 40.41436 107.83255 40947 ft 566 kts 81°
2026-05-05 21:21 40.42635 107.93459 40944 ft 567 kts 81°
2026-05-05 21:22 40.43825 108.03690 40939 ft 567 kts 81°
2026-05-05 21:22 40.45005 108.13933 40940 ft 567 kts 81°
2026-05-05 21:23 40.45980 108.22437 40930 ft 567 kts 81°
2026-05-05 21:23 40.47147 108.32700 40925 ft 567 kts 81°
2026-05-05 21:24 40.48302 108.42940 40922 ft 567 kts 81°
2026-05-05 21:24 40.49449 108.53198 40918 ft 568 kts 81°
2026-05-05 21:25 40.50587 108.63464 40907 ft 568 kts 81°
2026-05-05 21:25 40.51718 108.73744 40893 ft 568 kts 81°
2026-05-05 21:26 40.52839 108.84028 40892 ft 568 kts 81°
2026-05-05 21:26 40.53952 108.94322 40896 ft 568 kts 81°
2026-05-05 21:27 40.55056 109.04615 40896 ft 569 kts 81°
2026-05-05 21:27 40.56150 109.14914 40908 ft 569 kts 81°
2026-05-05 21:28 40.57229 109.25149 40906 ft 569 kts 81°
2026-05-05 21:28 40.58306 109.35462 40913 ft 569 kts 81°
2026-05-05 21:29 40.59374 109.45787 40911 ft 569 kts 81°
2026-05-05 21:29 40.60435 109.56129 40895 ft 569 kts 81°
2026-05-05 21:30 40.61487 109.66465 40895 ft 570 kts 81°
2026-05-05 21:30 40.62528 109.76798 40891 ft 570 kts 81°
2026-05-05 21:31 40.63560 109.87141 40891 ft 570 kts 81°
2026-05-05 21:31 40.64523 109.97528 40885 ft 571 kts 85°
2026-05-05 21:32 40.64615 110.07910 40873 ft 571 kts 90°
2026-05-05 21:32 40.64565 110.18360 40871 ft 572 kts 90°
2026-05-05 21:33 40.64513 110.28832 40867 ft 571 kts 90°
2026-05-05 21:33 40.64444 110.39298 40869 ft 572 kts 90°
2026-05-05 21:34 40.64363 110.49768 40873 ft 571 kts 90°
2026-05-05 21:34 40.64275 110.60243 40862 ft 571 kts 90°
2026-05-05 21:35 40.64179 110.70641 40861 ft 571 kts 90°
2026-05-05 21:35 40.64071 110.81086 40865 ft 571 kts 90°
2026-05-05 21:36 40.63955 110.91533 40861 ft 571 kts 90°
2026-05-05 21:36 40.63830 111.01974 40861 ft 571 kts 90°
2026-05-05 21:37 40.63695 111.12436 40860 ft 570 kts 90°
2026-05-05 21:37 40.63551 111.22863 40857 ft 570 kts 90°
2026-05-05 21:38 40.63397 111.33305 40857 ft 570 kts 90°
2026-05-05 21:38 40.63235 111.43748 40849 ft 570 kts 90°
2026-05-05 21:39 40.63062 111.54208 40856 ft 570 kts 90°
2026-05-05 21:39 40.62881 111.64647 40865 ft 570 kts 91°
2026-05-05 21:40 40.62691 111.74996 40872 ft 569 kts 91°
2026-05-05 21:40 40.62491 111.85422 40872 ft 569 kts 91°
2026-05-05 21:41 40.62300 111.95854 40869 ft 569 kts 90°
2026-05-05 21:41 40.62074 112.06270 40866 ft 569 kts 91°
2026-05-05 21:42 40.61836 112.16693 40862 ft 569 kts 91°
2026-05-05 21:42 40.61595 112.27122 40870 ft 569 kts 91°
2026-05-05 21:43 40.61348 112.37455 40870 ft 568 kts 91°
2026-05-05 21:43 40.61089 112.47844 40868 ft 568 kts 91°
2026-05-05 21:44 40.60635 112.58228 40875 ft 567 kts 94°
2026-05-05 21:44 40.59980 112.68573 40870 ft 567 kts 94°
2026-05-05 21:45 40.59277 112.78930 40873 ft 567 kts 96°
2026-05-05 21:45 40.58443 112.89175 40878 ft 566 kts 95°
2026-05-05 21:46 40.57772 112.99516 40880 ft 566 kts 94°
2026-05-05 21:46 40.57093 113.09820 40875 ft 566 kts 94°
2026-05-05 21:47 40.56392 113.20152 40878 ft 566 kts 95°
2026-05-05 21:47 40.55684 113.30406 40875 ft 565 kts 95°
2026-05-05 21:48 40.54965 113.40696 40871 ft 565 kts 95°
2026-05-05 21:48 40.54236 113.50984 40866 ft 565 kts 95°
2026-05-05 21:49 40.53498 113.61278 40866 ft 565 kts 95°
2026-05-05 21:49 40.52751 113.71564 40861 ft 565 kts 95°
2026-05-05 21:50 40.51996 113.81832 40843 ft 565 kts 95°
2026-05-05 21:50 40.51237 113.92038 40845 ft 565 kts 95°
2026-05-05 21:51 40.50483 114.02294 40849 ft 564 kts 93°
2026-05-05 21:51 40.50068 114.12579 40840 ft 564 kts 91°
2026-05-05 21:52 40.49473 114.28026 40835 ft 565 kts 92°
2026-05-05 21:53 40.49020 114.38348 40833 ft 566 kts 92°
2026-05-05 21:53 40.48555 114.48661 40834 ft 566 kts 92°
2026-05-05 21:54 40.48081 114.58991 40821 ft 566 kts 92°
2026-05-05 21:54 40.47598 114.69308 40813 ft 567 kts 92°
2026-05-05 21:55 40.47105 114.79648 40811 ft 567 kts 92°
2026-05-05 21:55 40.46600 114.89967 40791 ft 567 kts 92°
2026-05-05 21:56 40.46091 115.00297 40781 ft 567 kts 92°
2026-05-05 21:56 40.45570 115.10644 40781 ft 567 kts 92°
2026-05-05 21:57 40.45042 115.20924 40782 ft 567 kts 92°
2026-05-05 21:57 40.44504 115.31249 40775 ft 567 kts 92°
2026-05-05 21:58 40.43956 115.41576 40774 ft 567 kts 92°
2026-05-05 21:58 40.43399 115.51908 40777 ft 567 kts 92°
2026-05-05 21:59 40.42677 115.62229 40784 ft 568 kts 95°
2026-05-05 21:59 40.41833 115.72026 40779 ft 568 kts 95°
2026-05-05 22:00 40.40970 115.82347 40779 ft 568 kts 95°
2026-05-05 22:00 40.40120 115.92618 40778 ft 567 kts 95°
2026-05-05 22:01 40.39260 116.02937 40774 ft 567 kts 95°
2026-05-05 22:01 40.38400 116.13135 40768 ft 566 kts 95°
2026-05-05 22:02 40.37525 116.23405 40747 ft 565 kts 95°
2026-05-05 22:02 40.36675 116.33296 40753 ft 567 kts 95°
2026-05-05 22:03 40.35780 116.43568 40740 ft 566 kts 95°
2026-05-05 22:03 40.34810 116.53786 40727 ft 564 kts 101°
2026-05-05 22:03 40.33754 116.58674 40729 ft 565 kts 112°
2026-05-05 22:04 40.32306 116.62763 40727 ft 564 kts 122°
2026-05-05 22:04 40.30103 116.67026 40727 ft 560 kts 133°
2026-05-05 22:04 40.27443 116.70687 40723 ft 551 kts 143°
2026-05-05 22:05 40.21157 116.76047 40691 ft 531 kts 163°
2026-05-05 22:05 40.17729 116.77662 40686 ft 519 kts 173°
2026-05-05 22:05 40.14417 116.78533 40675 ft 508 kts 180°
2026-05-05 22:06 40.07417 116.79921 40719 ft 511 kts 179°
2026-05-05 22:06 40.00331 116.81371 40713 ft 517 kts 179°
2026-05-05 22:07 39.93231 116.82802 40712 ft 515 kts 179°
2026-05-05 22:07 39.86146 116.84213 40713 ft 515 kts 179°
2026-05-05 22:08 39.79106 116.85610 40707 ft 514 kts 179°
2026-05-05 22:08 39.72042 116.87068 40708 ft 514 kts 178°
2026-05-05 22:09 39.64972 116.88543 40695 ft 514 kts 178°
2026-05-05 22:09 39.57916 116.90003 40709 ft 513 kts 178°
2026-05-05 22:10 39.50861 116.91458 40697 ft 513 kts 178°
2026-05-05 22:10 39.43814 116.92906 40703 ft 513 kts 178°
2026-05-05 22:11 39.37954 116.94109 40703 ft 513 kts 178°
2026-05-05 22:11 39.30889 116.95557 40706 ft 513 kts 178°
2026-05-05 22:12 39.23934 116.97885 40705 ft 526 kts 161°
2026-05-05 22:12 39.17686 117.02996 40712 ft 540 kts 141°
2026-05-05 22:13 39.12927 117.10491 40712 ft 546 kts 120°
2026-05-05 22:13 39.10250 117.19416 40723 ft 546 kts 100°
2026-05-05 22:14 39.08995 117.28980 40722 ft 545 kts 98°
2026-05-05 22:14 39.07902 117.38615 40728 ft 543 kts 91°
2026-05-05 22:15 39.07749 117.48306 40727 ft 541 kts 88°
2026-05-05 22:15 39.07660 117.56914 40737 ft 541 kts 88°
2026-05-05 22:16 39.07542 117.66618 40740 ft 541 kts 88°
2026-05-05 22:16 39.07417 117.76308 40743 ft 541 kts 88°
2026-05-05 22:17 39.07286 117.85980 40744 ft 541 kts 88°
2026-05-05 22:17 39.07147 117.95662 40743 ft 540 kts 88°
2026-05-05 22:18 39.06678 118.05273 40739 ft 542 kts 96°
2026-05-05 22:18 39.05228 118.14794 40736 ft 543 kts 100°
2026-05-05 22:19 39.03720 118.24307 40739 ft 543 kts 100°
2026-05-05 22:19 39.02207 118.33825 40743 ft 542 kts 100°
2026-05-05 22:20 39.00683 118.43328 40744 ft 542 kts 100°
2026-05-05 22:20 38.99149 118.52836 40753 ft 542 kts 100°
2026-05-05 22:21 38.97610 118.62318 40749 ft 542 kts 100°
2026-05-05 22:21 38.96071 118.71754 40755 ft 541 kts 100°
2026-05-05 22:22 38.94520 118.81213 40758 ft 541 kts 100°
2026-05-05 22:22 38.92963 118.90657 40766 ft 540 kts 101°
2026-05-05 22:23 38.91146 119.00023 40765 ft 540 kts 103°
2026-05-05 22:23 38.89243 119.09346 40773 ft 539 kts 103°
2026-05-05 22:24 38.87370 119.18673 40771 ft 539 kts 103°
2026-05-05 22:24 38.85506 119.27986 40780 ft 538 kts 103°
2026-05-05 22:25 38.83640 119.37275 40775 ft 537 kts 103°
2026-05-05 22:25 38.81765 119.46562 40784 ft 537 kts 103°
2026-05-05 22:26 38.79896 119.55772 40783 ft 537 kts 103°
2026-05-05 22:26 38.78009 119.65035 40787 ft 536 kts 103°
2026-05-05 22:27 38.76159 119.74078 40791 ft 536 kts 103°
2026-05-05 22:27 38.74260 119.83318 40796 ft 536 kts 103°
2026-05-05 22:28 38.72358 119.92534 40797 ft 536 kts 103°
2026-05-05 22:28 38.70458 120.01700 40802 ft 535 kts 103°
2026-05-05 22:29 38.68539 120.10918 40810 ft 535 kts 103°
2026-05-05 22:29 38.66618 120.20104 40816 ft 535 kts 103°
2026-05-05 22:30 38.64688 120.29299 40819 ft 535 kts 103°
2026-05-05 22:30 38.62751 120.38485 40824 ft 535 kts 103°
2026-05-05 22:31 38.60819 120.47606 40829 ft 534 kts 103°
2026-05-05 22:31 38.58866 120.56791 40840 ft 534 kts 103°
2026-05-05 22:32 38.56911 120.65943 40834 ft 533 kts 104°
2026-05-05 22:32 38.54961 120.75040 40851 ft 533 kts 104°
2026-05-05 22:33 38.53038 120.83968 40844 ft 533 kts 104°
2026-05-05 22:33 38.51068 120.93082 40844 ft 532 kts 104°
2026-05-05 22:33 38.50081 120.97626 40618 ft 533 kts 103°
2026-05-05 22:34 38.49087 121.02192 40873 ft 532 kts 103°
2026-05-05 22:34 38.47082 121.11413 40864 ft 546 kts 103°
2026-05-05 22:35 38.45182 121.20883 40870 ft 549 kts 98°
2026-05-05 22:35 38.43738 121.30400 40880 ft 547 kts 98°
2026-05-05 22:36 38.42260 121.39932 40873 ft 547 kts 98°
2026-05-05 22:36 38.40722 121.49431 40874 ft 547 kts 99°
2026-05-05 22:37 38.39138 121.58927 40875 ft 547 kts 99°
2026-05-05 22:37 38.37546 121.68414 40885 ft 547 kts 99°
2026-05-05 22:38 38.35957 121.77857 40888 ft 547 kts 99°
2026-05-05 22:38 38.34357 121.87323 40886 ft 547 kts 99°
2026-05-05 22:39 38.32749 121.96792 40895 ft 546 kts 99°
2026-05-05 22:39 38.31132 122.06256 40891 ft 546 kts 99°
2026-05-05 22:40 38.29511 122.15701 40907 ft 546 kts 99°
2026-05-05 22:40 38.27891 122.25087 40905 ft 546 kts 99°
2026-05-05 22:41 38.26467 122.34548 40899 ft 544 kts 96°
2026-05-05 22:41 38.24263 122.43758 40907 ft 550 kts 114°
2026-05-05 22:42 38.19975 122.51814 40903 ft 552 kts 134°
2026-05-05 22:42 38.14579 122.58736 40904 ft 551 kts 135°
2026-05-05 22:43 38.09203 122.65661 40916 ft 551 kts 135°
2026-05-05 22:43 38.03845 122.72624 40918 ft 551 kts 135°
2026-05-05 22:44 37.98527 122.79542 40931 ft 551 kts 135°
2026-05-05 22:44 37.93175 122.86474 40930 ft 550 kts 135°
2026-05-05 22:45 37.87813 122.93400 40951 ft 550 kts 135°
2026-05-05 22:45 37.82446 123.00315 40957 ft 550 kts 135°
2026-05-05 22:46 37.77085 123.07208 40958 ft 549 kts 135°
2026-05-05 22:46 37.71720 123.14091 40958 ft 549 kts 135°
2026-05-05 22:47 37.66781 123.20414 40965 ft 549 kts 135°
2026-05-05 22:47 37.61453 123.27221 40970 ft 548 kts 135°
2026-05-05 22:48 37.56194 123.34173 40969 ft 548 kts 129°
2026-05-05 22:48 37.51597 123.41818 40972 ft 547 kts 126°
2026-05-05 22:49 37.47051 123.49471 40979 ft 546 kts 126°
2026-05-05 22:49 37.42476 123.57129 40983 ft 546 kts 126°
2026-05-05 22:50 37.37913 123.64746 40989 ft 545 kts 126°
2026-05-05 22:50 37.33342 123.72359 40994 ft 545 kts 126°
2026-05-05 22:51 37.28775 123.79950 41001 ft 545 kts 126°
2026-05-05 22:51 37.24210 123.87520 41007 ft 544 kts 126°
2026-05-05 22:52 37.19836 123.95270 41009 ft 541 kts 116°
2026-05-05 22:52 37.18329 123.99508 41009 ft 537 kts 105°
2026-05-05 22:52 37.17381 124.04020 41013 ft 532 kts 96°
2026-05-05 22:53 37.17148 124.13157 41013 ft 522 kts 82°
2026-05-05 22:53 37.17510 124.22254 41014 ft 522 kts 83°
2026-05-05 22:54 37.17793 124.31366 41020 ft 523 kts 84°
2026-05-05 22:54 37.17998 124.40425 41022 ft 523 kts 84°
2026-05-05 22:55 37.18207 124.49600 41023 ft 523 kts 84°
2026-05-05 22:55 37.18413 124.58723 41026 ft 523 kts 84°
2026-05-05 22:56 37.18614 124.67850 41031 ft 523 kts 84°
2026-05-05 22:56 37.18808 124.76977 41027 ft 523 kts 84°
2026-05-05 22:57 37.18994 124.86049 41028 ft 522 kts 85°
2026-05-05 22:57 37.19082 124.90562 40914 ft 515 kts 85°
2026-05-05 22:57 37.19155 124.94454 40465 ft 509 kts 84°
2026-05-05 22:57 37.19237 124.98869 39702 ft 504 kts 83°
2026-05-05 22:58 37.19317 125.03226 38859 ft 500 kts 83°
2026-05-05 22:58 37.19397 125.07572 37727 ft 497 kts 83°
2026-05-05 22:58 37.19482 125.11933 36357 ft 500 kts 83°
2026-05-05 22:58 37.19564 125.16284 35304 ft 497 kts 84°
2026-05-05 22:59 37.19641 125.20618 34131 ft 497 kts 85°
2026-05-05 22:59 37.19717 125.24957 32734 ft 498 kts 85°
2026-05-05 22:59 37.19765 125.27828 31805 ft 498 kts 86°
2026-05-05 22:59 37.19836 125.32161 30371 ft 498 kts 86°
2026-05-05 23:00 37.19970 125.40822 27628 ft 488 kts 87°
2026-05-05 23:00 37.20115 125.45036 26470 ft 478 kts 81°
2026-05-05 23:00 37.20811 125.49030 25404 ft 467 kts 70°
2026-05-05 23:01 37.22077 125.52736 24375 ft 456 kts 59°
2026-05-05 23:01 37.23715 125.56082 23265 ft 448 kts 56°
2026-05-05 23:01 37.25350 125.59381 22179 ft 441 kts 56°
2026-05-05 23:01 37.26955 125.62649 21144 ft 434 kts 56°
2026-05-05 23:02 37.28480 125.65767 20171 ft 427 kts 57°
2026-05-05 23:02 37.30025 125.68929 19193 ft 422 kts 57°
2026-05-05 23:02 37.31539 125.72042 18240 ft 415 kts 59°
2026-05-05 23:02 37.32660 125.75384 17236 ft 412 kts 74°
2026-05-05 23:03 37.33022 125.78916 16328 ft 406 kts 91°
2026-05-05 23:03 37.32682 125.82360 15455 ft 398 kts 101°
2026-05-05 23:03 37.32127 125.85733 14657 ft 392 kts 103°
2026-05-05 23:03 37.31508 125.89050 13826 ft 383 kts 109°
2026-05-05 23:04 37.30463 125.92078 13136 ft 367 kts 121°
2026-05-05 23:04 37.29071 125.94632 12881 ft 342 kts 131°
2026-05-05 23:04 37.27614 125.96823 12648 ft 320 kts 130°
2026-05-05 23:04 37.26254 125.98933 12310 ft 306 kts 130°
2026-05-05 23:05 37.24945 126.01052 11554 ft 307 kts 122°
2026-05-05 23:05 37.24202 126.03565 10883 ft 309 kts 97°
2026-05-05 23:05 37.24328 126.06211 10269 ft 306 kts 73°
2026-05-05 23:05 37.25259 126.08562 9629 ft 303 kts 53°
2026-05-05 23:06 37.25686 126.09263 9422 ft 301 kts 50°
2026-05-05 23:06 37.26102 126.09892 9208 ft 300 kts 48°
2026-05-05 23:06 37.27646 126.11642 8562 ft 294 kts 26°
2026-05-05 23:07 37.29553 126.12361 8405 ft 285 kts
2026-05-05 23:07 37.31450 126.11974 8328 ft 270 kts 334°
2026-05-05 23:07 37.32941 126.10722 8213 ft 250 kts 319°
2026-05-05 23:07 37.34251 126.09395 8086 ft 235 kts 319°
2026-05-05 23:08 37.35529 126.08164 7892 ft 229 kts 320°
2026-05-05 23:08 37.36814 126.06972 7770 ft 229 kts 321°
2026-05-05 23:08 37.38109 126.05797 7663 ft 229 kts 321°
2026-05-05 23:08 37.39408 126.04629 7513 ft 229 kts 321°
2026-05-05 23:09 37.40703 126.03469 7375 ft 228 kts 321°
2026-05-05 23:09 37.41987 126.02319 7231 ft 227 kts 321°
2026-05-05 23:09 37.43290 126.01180 7108 ft 227 kts 328°
2026-05-05 23:09 37.44803 126.00669 7027 ft 236 kts 358°
2026-05-05 23:10 37.46403 126.01215 6982 ft 244 kts 25°
2026-05-05 23:10 37.47922 126.02168 6920 ft 244 kts 18°
2026-05-05 23:10 37.49499 126.02936 6842 ft 243 kts 17°
2026-05-05 23:10 37.51053 126.03686 6769 ft 242 kts 17°
2026-05-05 23:11 37.52649 126.04460 6705 ft 242 kts 17°
2026-05-05 23:11 37.54230 126.05228 6627 ft 242 kts 17°
2026-05-05 23:11 37.55802 126.05997 6557 ft 242 kts 17°
2026-05-05 23:11 37.57323 126.06913 6411 ft 247 kts 34°
2026-05-05 23:12 37.58434 126.08580 5932 ft 256 kts 64°
2026-05-05 23:12 37.58962 126.10769 5197 ft 266 kts 79°
2026-05-05 23:12 37.59265 126.13119 4356 ft 278 kts 83°
2026-05-05 23:12 37.59554 126.15450 3572 ft 286 kts 82°
2026-05-05 23:13 37.59925 126.18003 2996 ft 283 kts 81°
2026-05-05 23:13 37.60315 126.20397 2373 ft 279 kts 81°
2026-05-05 23:13 37.60716 126.22733 2039 ft 268 kts 81°
2026-05-05 23:13 37.61105 126.24935 1976 ft 242 kts 83°
2026-05-05 23:14 37.61191 126.26893 1989 ft 208 kts 109°
2026-05-05 23:14 37.60670 126.28442 2010 ft 181 kts 131°
2026-05-05 23:14 37.59859 126.29598 1990 ft 174 kts 144°
2026-05-05 23:14 37.58918 126.30558 1993 ft 174 kts 149°
2026-05-05 23:15 37.57946 126.31447 1988 ft 167 kts 152°
2026-05-05 23:15 37.57026 126.32275 1986 ft 160 kts 152°
2026-05-05 23:15 37.56121 126.33082 1995 ft 158 kts 152°
2026-05-05 23:15 37.55263 126.33856 1991 ft 144 kts 152°
2026-05-05 23:16 37.54477 126.34557 1903 ft 135 kts 153°
2026-05-05 23:16 37.53714 126.35234 1734 ft 134 kts 153°
2026-05-05 23:16 37.52968 126.35910 1561 ft 134 kts 152°
2026-05-05 23:16 37.52210 126.36583 1364 ft 133 kts 151°
2026-05-05 23:17 37.51451 126.37259 1185 ft 133 kts 150°
2026-05-05 23:17 37.50736 126.37900 1012 ft 132 kts 148°
2026-05-05 23:17 37.49986 126.38572 823 ft 132 kts 146°
2026-05-05 23:17 37.49229 126.39247 648 ft 133 kts 145°
2026-05-05 23:18 37.48505 126.39895 461 ft 132 kts 144°
2026-05-05 23:18 37.47774 126.40553 296 ft 133 kts 143°
2026-05-05 23:18 37.47037 126.41209 111 ft 132 kts 144°
2026-05-05 23:18 37.46316 126.41845 39 ft 113 kts 144°
2026-05-05 23:19 37.45796 126.42306 36 ft 72 kts 145°
2026-05-05 23:19 37.45476 126.42591 37 ft 50 kts 145°
2026-05-05 23:19 37.45268 126.42773 37 ft 22 kts 145°
2026-05-05 23:19 37.45158 126.42894 36 ft 21 kts 127°
2026-05-05 23:20 37.45095 126.43031 36 ft 14 kts 115°
2026-05-05 23:20 37.45056 126.43137 37 ft 14 kts 104°
2026-05-05 23:20 37.45073 126.43256 37 ft 15 kts 59°
2026-05-05 23:20 37.45137 126.43378 36 ft 18 kts 56°
2026-05-05 23:21 37.45200 126.43517 37 ft 13 kts 66°
2026-05-05 23:21 37.45208 126.43638 37 ft 15 kts 112°
2026-05-05 23:21 37.45138 126.43730 38 ft 16 kts 146°
2026-05-05 23:21 37.45042 126.43813 38 ft 18 kts 146°
2026-05-05 23:22 37.44936 126.43904 38 ft 19 kts 143°
2026-05-05 23:22 37.44824 126.44008 38 ft 21 kts 144°
2026-05-05 23:22 37.44706 126.44113 38 ft 19 kts 144°
2026-05-05 23:22 37.44599 126.44208 37 ft 19 kts 145°
2026-05-05 23:23 37.44538 126.44286 37 ft 11 kts 97°
2026-05-05 23:23 37.44572 126.44375 37 ft 14 kts 53°
2026-05-05 23:23 37.44636 126.44486 37 ft 16 kts 54°
2026-05-05 23:23 37.44698 126.44581 37 ft 12 kts 32°
2026-05-05 23:24 37.44750 126.44615 37 ft 6 kts 52°
2026-05-05 23:24 37.44760 126.44645 37 ft 5 kts 92°
2026-05-05 23:24 37.44746 126.44686 37 ft 0 kts 113°
2026-05-05 23:24 37.44741 126.44700 37 ft 1 kts 112°
2026-05-05 23:25 37.44740 126.44705 37 ft 0 kts 112°